This is the latest recevied weather packets stored in our database for station/object MIDVIL-WX. If no packets are shown the sender has not sent any weather packets the latest 10 day(s).
| Time | Temp. | Humidity | Pressure | Rain* | Wind** | Luminosity | Snow |
|---|---|---|---|---|---|---|---|
| 1778039125 | 6.67° C | 57% | 983.6 hPa | 0 mm | - | - | - |
| 1778037327 | 6.67° C | 55% | 983.5 hPa | 0 mm | - | - | - |
| 1778036461 | 7.22° C | 55% | 983.5 hPa | 0 mm | - | - | - |
| 1778035527 | 7.22° C | 50% | 983.6 hPa | 0 mm | - | - | - |
| 1778034645 | 7.78° C | 47% | 983.7 hPa | 0 mm | - | - | - |
| 1778033726 | 8.33° C | 47% | 983.7 hPa | 0 mm | - | - | - |
| 1778032849 | 8.33° C | 47% | 983.7 hPa | 0 mm | - | - | - |
| 1778031927 | 8.33° C | 42% | 983.3 hPa | 0 mm | - | - | - |
| 1778031047 | 8.89° C | 42% | 983.3 hPa | 0 mm | - | - | - |
| 1778030127 | 8.33° C | 42% | 983.3 hPa | 0 mm | - | - | - |
| 1778029251 | 8.33° C | 42% | 983.3 hPa | 0 mm | - | - | - |
| 1778028326 | 9.44° C | 36% | 983.3 hPa | 0 mm | - | - | - |
| 1778027441 | 9.44° C | 37% | 983.6 hPa | 0 mm | - | - | - |
| 1778026526 | 10° C | 37% | 983.6 hPa | 0 mm | - | - | - |
| 1778025656 | 10.56° C | 37% | 983.6 hPa | 0 mm | - | - | - |
| 1778024726 | 10.56° C | 35% | 983.4 hPa | 0 mm | - | - | - |
| 1778023843 | 11.11° C | 34% | 983.3 hPa | 0 mm | - | - | - |
| 1778022926 | 11.11° C | 34% | 983.3 hPa | 0 mm | - | - | - |
| 1778022051 | 11.11° C | 34% | 983.3 hPa | 0 mm | - | - | - |
| 1778021126 | 11.11° C | 35% | 983.3 hPa | 0 mm | - | - | - |
| 1778020245 | 11.67° C | 35% | 983.6 hPa | 0 mm | - | - | - |
| 1778019326 | 11.67° C | 35% | 983.6 hPa | 0 mm | - | - | - |
| 1778018455 | 11.67° C | 35% | 983.6 hPa | 0 mm | - | - | - |
| 1778017525 | 12.22° C | 37% | 983.3 hPa | 0 mm | - | - | - |
| 1778016645 | 11.67° C | 36% | 983 hPa | 0 mm | - | - | - |
* Rain latest hour (hover to see other rain measurements)
** Current wind speed in m/s (hover to see current wind gust speed)